Location: Newark
(53.4333°N, 36.0000°E)
Time: 07:08:11
(UTC+00:00)

ISS - Pass Details

Date: 28 September 2019
Orbit: 411 x 421 km, 51.6° (Epoch: 21 October)

Event Time Altitude Azimuth Distance (km) Brightness Sun altitude
Rises 17:46:28 0° 273° (W) 2,347 1.2 -21.8°
Reaches altitude 10° 17:48:35 10° 269° (W) 1,484 -0.1 -22.0°
Enters shadow 17:50:56 39° 246° (WSW) 634 -2.6 -22.3°
